When you browse on this site, cookies collect data to enhance your experience and personalize the content and advertising you see.
Visit our Privacy Policy to learn more. By continuing to use the site, you agree to this use of cookies and data.
  • In Österreich
  • Länderverzeichnis
  • Für 7 Tage
  • Wassertemperatur
  • Satellitenkarten
  • Wetterkarte
  • News
  • Widgets
  • user-avatar
    Anmelden

    Stündliche Wetter Ronchamp

    Heute, 21 Mai, Dienstag

    Zeit Temperatur Niederschläge Wind Luftdruck Luftfeuchtigkeit
    00:00 +9°C° 0 mm 2 m/S 722 mmHg 97%
    01:00 +9°C° 0 mm 2 m/S 723 mmHg 97%
    02:00 +9°C° 0 mm 2 m/S 723 mmHg 98%
    03:00 +9°C° 0 mm 2 m/S 723 mmHg 98%
    04:00 +9°C° 0.1 mm 2 m/S 723 mmHg 98%
    05:00 +9°C° 0.1 mm 2 m/S 723 mmHg 98%
    06:00 +9°C° 0.1 mm 2 m/S 723 mmHg 98%
    07:00 +9°C° 0.1 mm 2 m/S 724 mmHg 98%
    08:00 +10°C° 0.1 mm 2 m/S 724 mmHg 97%
    09:00 +10°C° 0.1 mm 2 m/S 724 mmHg 97%
    10:00 +13°C° 0.1 mm 2 m/S 724 mmHg 91%
    11:00 +14°C° 0.1 mm 2 m/S 725 mmHg 86%
    12:00 +14°C° 0.1 mm 3 m/S 725 mmHg 80%
    13:00 +16°C° 0.3 mm 3 m/S 725 mmHg 79%
    14:00 +16°C° 0.3 mm 3 m/S 725 mmHg 79%
    15:00 +16°C° 0.3 mm 3 m/S 725 mmHg 79%
    16:00 +16°C° 0.1 mm 2 m/S 725 mmHg 80%
    17:00 +15°C° 0.1 mm 1 m/S 725 mmHg 82%
    18:00 +15°C° 0.1 mm 1 m/S 725 mmHg 84%
    19:00 +13°C° 0 mm 1 m/S 725 mmHg 88%
    20:00 +11°C° 0 mm 0 m/S 726 mmHg 91%
    21:00 +9°C° 0 mm 0 m/S 726 mmHg 95%
    22:00 +9°C° 0 mm 0 m/S 726 mmHg 95%
    23:00 +8°C° 0 mm 0 m/S 726 mmHg 95%

    Morgen, 22 Mai, Mittwoch

    Zeit Temperatur Niederschläge Wind Luftdruck Luftfeuchtigkeit
    00:00 +8°C° 0 mm 0 m/S 726 mmHg 96%
    01:00 +7°C° 0 mm 0 m/S 726 mmHg 96%
    02:00 +8°C° 0 mm 1 m/S 726 mmHg 96%
    03:00 +8°C° 0 mm 1 m/S 726 mmHg 97%
    04:00 +9°C° 0 mm 1 m/S 727 mmHg 95%
    05:00 +9°C° 0 mm 0 m/S 727 mmHg 94%
    06:00 +10°C° 0 mm 0 m/S 727 mmHg 92%
    07:00 +13°C° 0 mm 1 m/S 727 mmHg 80%
    08:00 +15°C° 0 mm 1 m/S 728 mmHg 67%
    09:00 +18°C° 0 mm 1 m/S 728 mmHg 55%
    10:00 +19°C° 0 mm 1 m/S 728 mmHg 49%
    11:00 +19°C° 0 mm 2 m/S 728 mmHg 44%
    12:00 +20°C° 0 mm 2 m/S 728 mmHg 39%
    13:00 +20°C° 0 mm 2 m/S 728 mmHg 40%
    14:00 +20°C° 0 mm 2 m/S 727 mmHg 41%
    15:00 +20°C° 0 mm 3 m/S 727 mmHg 42%
    16:00 +18°C° 0 mm 2 m/S 727 mmHg 51%
    17:00 +17°C° 0 mm 2 m/S 727 mmHg 61%
    18:00 +16°C° 0 mm 1 m/S 727 mmHg 70%
    19:00 +14°C° 0 mm 1 m/S 728 mmHg 76%
    20:00 +12°C° 0 mm 1 m/S 728 mmHg 82%
    21:00 +10°C° 0 mm 1 m/S 728 mmHg 88%
    22:00 +9°C° 0 mm 1 m/S 728 mmHg 88%
    23:00 +9°C° 0 mm 1 m/S 728 mmHg 89%

    übermorgen, 23 Mai, Donnerstag

    Zeit Temperatur Niederschläge Wind Luftdruck Luftfeuchtigkeit
    00:00 +8°C° 0 mm 1 m/S 728 mmHg 90%
    01:00 +8°C° 0 mm 1 m/S 728 mmHg 90%
    02:00 +8°C° 0 mm 1 m/S 728 mmHg 90%
    03:00 +7°C° 0 mm 1 m/S 728 mmHg 90%
    04:00 +9°C° 0 mm 1 m/S 728 mmHg 85%
    05:00 +11°C° 0 mm 1 m/S 728 mmHg 80%
    06:00 +12°C° 0 mm 1 m/S 728 mmHg 75%
    07:00 +14°C° 0 mm 1 m/S 728 mmHg 68%
    08:00 +18°C° 0 mm 1 m/S 728 mmHg 61%
    09:00 +20°C° 0 mm 1 m/S 728 mmHg 54%
    10:00 +21°C° 0 mm 1 m/S 728 mmHg 50%
    11:00 +22°C° 0 mm 1 m/S 728 mmHg 47%
    12:00 +24°C° 0 mm 1 m/S 728 mmHg 43%
    13:00 +24°C° 0 mm 1 m/S 727 mmHg 44%
    14:00 +24°C° 0 mm 1 m/S 727 mmHg 45%
    15:00 +23°C° 0 mm 1 m/S 727 mmHg 46%
    16:00 +22°C° 0 mm 1 m/S 727 mmHg 55%
    17:00 +21°C° 0 mm 1 m/S 726 mmHg 64%
    18:00 +19°C° 0 mm 1 m/S 726 mmHg 73%
    19:00 +16°C° 0 mm 1 m/S 726 mmHg 78%
    20:00 +14°C° 0 mm 1 m/S 726 mmHg 83%
    21:00 +12°C° 0 mm 1 m/S 727 mmHg 88%
    22:00 +12°C° 0 mm 1 m/S 726 mmHg 89%
    23:00 +11°C° 0 mm 1 m/S 726 mmHg 90%

    24 Mai, Freitag

    Zeit Temperatur Niederschläge Wind Luftdruck Luftfeuchtigkeit
    00:00 +11°C° 0 mm 1 m/S 726 mmHg 91%
    01:00 +10°C° 0 mm 1 m/S 726 mmHg 91%
    02:00 +10°C° 0 mm 1 m/S 726 mmHg 92%
    03:00 +9°C° 0 mm 1 m/S 725 mmHg 92%
    04:00 +10°C° 0 mm 0 m/S 725 mmHg 87%
    05:00 +12°C° 0 mm 0 m/S 726 mmHg 82%
    06:00 +13°C° 0 mm 0 m/S 726 mmHg 78%
    07:00 +15°C° 0 mm 0 m/S 726 mmHg 72%
    08:00 +19°C° 0 mm 1 m/S 725 mmHg 66%
    09:00 +19°C° 0 mm 2 m/S 725 mmHg 60%
    10:00 +20°C° 0 mm 2 m/S 725 mmHg 57%
    11:00 +21°C° 0 mm 2 m/S 725 mmHg 54%
    12:00 +22°C° 0 mm 3 m/S 724 mmHg 50%
    13:00 +21°C° 0.2 mm 4 m/S 724 mmHg 58%
    14:00 +20°C° 0.2 mm 4 m/S 724 mmHg 66%
    15:00 +19°C° 0.2 mm 5 m/S 723 mmHg 73%
    16:00 +17°C° 0.6 mm 4 m/S 723 mmHg 81%
    17:00 +14°C° 0.6 mm 3 m/S 723 mmHg 89%
    18:00 +12°C° 0.6 mm 2 m/S 723 mmHg 96%
    19:00 +12°C° 0.4 mm 2 m/S 723 mmHg 97%
    20:00 +10°C° 0.4 mm 2 m/S 724 mmHg 98%
    21:00 +11°C° 0.4 mm 1 m/S 724 mmHg 98%
    22:00 +10°C° 0.2 mm 1 m/S 724 mmHg 98%
    23:00 +10°C° 0.2 mm 1 m/S 724 mmHg 99%

    25 Mai, Samstag

    Zeit Temperatur Niederschläge Wind Luftdruck Luftfeuchtigkeit
    00:00 +10°C° 0.2 mm 1 m/S 724 mmHg 99%
    01:00 +10°C° 0 mm 1 m/S 724 mmHg 99%
    02:00 +10°C° 0 mm 1 m/S 724 mmHg 98%
    03:00 +9°C° 0 mm 0 m/S 724 mmHg 98%
    04:00 +9°C° 0 mm 0 m/S 724 mmHg 98%
    05:00 +9°C° 0 mm 0 m/S 724 mmHg 98%
    06:00 +10°C° 0 mm 0 m/S 725 mmHg 97%
    07:00 +12°C° 0 mm 1 m/S 725 mmHg 90%
    08:00 +14°C° 0 mm 1 m/S 725 mmHg 83%
    09:00 +15°C° 0 mm 1 m/S 725 mmHg 76%
    10:00 +15°C° 0.1 mm 1 m/S 725 mmHg 75%
    11:00 +16°C° 0.1 mm 2 m/S 725 mmHg 74%
    12:00 +16°C° 0.1 mm 2 m/S 725 mmHg 73%
    13:00 +16°C° 0.1 mm 2 m/S 725 mmHg 71%
    14:00 +17°C° 0.1 mm 2 m/S 725 mmHg 69%
    15:00 +17°C° 0.1 mm 3 m/S 725 mmHg 67%
    16:00 +17°C° 0.1 mm 2 m/S 725 mmHg 71%
    17:00 +16°C° 0.1 mm 2 m/S 725 mmHg 75%
    18:00 +15°C° 0.1 mm 2 m/S 725 mmHg 78%
    19:00 +14°C° 0 mm 1 m/S 726 mmHg 84%
    20:00 +12°C° 0 mm 1 m/S 726 mmHg 90%
    21:00 +11°C° 0 mm 1 m/S 726 mmHg 96%
    22:00 +10°C° 0 mm 1 m/S 726 mmHg 97%
    23:00 +10°C° 0 mm 1 m/S 726 mmHg 97%

    26 Mai, Sonntag

    Zeit Temperatur Niederschläge Wind Luftdruck Luftfeuchtigkeit
    00:00 +9°C° 0 mm 1 m/S 726 mmHg 97%
    01:00 +10°C° 0 mm 1 m/S 726 mmHg 97%
    02:00 +10°C° 0 mm 1 m/S 726 mmHg 97%
    03:00 +10°C° 0 mm 1 m/S 727 mmHg 97%
    04:00 +11°C° 0 mm 1 m/S 727 mmHg 96%
    05:00 +11°C° 0 mm 1 m/S 727 mmHg 95%
    06:00 +12°C° 0 mm 1 m/S 727 mmHg 94%
    07:00 +13°C° 0 mm 1 m/S 727 mmHg 90%
    08:00 +14°C° 0 mm 1 m/S 727 mmHg 85%
    09:00 +15°C° 0 mm 1 m/S 727 mmHg 80%
    10:00 +17°C° 0 mm 2 m/S 727 mmHg 74%
    11:00 +18°C° 0 mm 2 m/S 727 mmHg 68%
    12:00 +19°C° 0 mm 2 m/S 727 mmHg 62%
    13:00 +19°C° 0.1 mm 2 m/S 727 mmHg 64%
    14:00 +19°C° 0.1 mm 2 m/S 727 mmHg 66%
    15:00 +19°C° 0.1 mm 3 m/S 726 mmHg 67%
    16:00 +19°C° 0 mm 2 m/S 726 mmHg 72%
    17:00 +18°C° 0 mm 2 m/S 726 mmHg 77%
    18:00 +17°C° 0 mm 2 m/S 726 mmHg 82%
    19:00 +16°C° 0 mm 1 m/S 726 mmHg 87%
    20:00 +14°C° 0 mm 1 m/S 727 mmHg 92%
    21:00 +13°C° 0 mm 1 m/S 727 mmHg 97%
    22:00 +13°C° 0 mm 1 m/S 727 mmHg 97%
    23:00 +13°C° 0 mm 1 m/S 727 mmHg 97%
    Mehr zeigen